sat.trackr.live / text

‹ back to catalog

STARLINK-36196

NORAD 67107 · 2025-299F

PAYLOAD ACTIVE UNKNOWN

§ Identity

Operator
Country
US
Launch date
2025-12-15
Launch site
AFETR
Launch vehicle
Mass (kg)
RCS (m²)

Purposes: comms

External: N2YO · Heavens-Above · Gunter

§ Orbital elements

Epoch: 2026-05-24T23:37:22.597248Z

Period
94.27 min
Inclination
43.0030°
Eccentricity
0.0001314
Mean motion
15.27587476 rev/d
Perigee alt
482.1 km
Apogee alt
483.9 km
Semi-major
6,861.2 km
B*
8.3018e-4
RAAN
98.1979°
Arg perigee
255.7267°
Mean anomaly
104.3439°
Rev number
2,478

§ Raw data

STARLINK-361961 67107U 25299F   26144.98428932  .00022658  00000+0  83018-3 0  99952 67107  43.0030  98.1979 0001314 255.7267 104.3439 15.27587476 24786

JSON: /api/v1/satellites/67107 · /tle

For live sub-satellite position, see the globe view (requires WebGL).

§ Visibility from observer

Set your observer location to see the next 7 days of passes ≥ 10°. The values pass through the URL so the page stays shareable.

No JS? Fill the form by hand. The geolocation button needs JavaScript.